Tabellarische Ansicht des 12.5.2018


Die einzelnen Werte des Tages

Uhrzeit Temperatur Luftdruck Luftfeuchte Wind Hi-Wind Taupunkt THW Index Wind Chill Heat Index Solar- strahlung Regen

00:00

14.8 C

1015.0 hpa

74 %

1.6 km/h aus 115

4.8 km/h aus W

10.2 C

14.5 C

14.8 C

14.5 C

0 W/m

0.00 mm

00:05

14.8 C

1015.0 hpa

74 %

3.2 km/h aus 112

6.4 km/h aus WSW

10.2 C

14.5 C

14.8 C

14.5 C

0 W/m

0.00 mm

00:10

14.8 C

1015.0 hpa

74 %

1.6 km/h aus 116

4.8 km/h aus SW

10.2 C

14.5 C

14.8 C

14.5 C

0 W/m

0.00 mm

00:15

14.8 C

1015.1 hpa

75 %

3.2 km/h aus 116

3.2 km/h aus SW

10.4 C

14.5 C

14.8 C

14.5 C

0 W/m

0.00 mm

00:20

14.8 C

1015.1 hpa

75 %

0.0 km/h aus 116

3.2 km/h aus SW

10.4 C

14.5 C

14.8 C

14.5 C

0 W/m

0.00 mm

00:25

14.7 C

1015.1 hpa

75 %

0.0 km/h aus 115

4.8 km/h aus SW

10.3 C

14.4 C

14.7 C

14.4 C

0 W/m

0.00 mm

00:30

14.7 C

1014.9 hpa

75 %

1.6 km/h aus 115

3.2 km/h aus SW

10.3 C

14.4 C

14.7 C

14.4 C

0 W/m

0.00 mm

00:35

14.7 C

1014.9 hpa

75 %

1.6 km/h aus 117

3.2 km/h aus SW

10.3 C

14.4 C

14.7 C

14.4 C

0 W/m

0.00 mm

00:40

14.7 C

1014.9 hpa

76 %

1.6 km/h aus 117

3.2 km/h aus SW

10.5 C

14.4 C

14.7 C

14.4 C

0 W/m

0.00 mm

00:45

14.6 C

1014.9 hpa

76 %

1.6 km/h aus 115

3.2 km/h aus SW

10.4 C

14.4 C

14.6 C

14.4 C

0 W/m

0.00 mm

00:50

14.6 C

1014.9 hpa

76 %

1.6 km/h aus 115

3.2 km/h aus SW

10.4 C

14.4 C

14.6 C

14.4 C

0 W/m

0.00 mm

00:55

14.6 C

1014.9 hpa

76 %

1.6 km/h aus 116

4.8 km/h aus SW

10.4 C

14.3 C

14.6 C

14.3 C

0 W/m

0.00 mm

01:00

14.5 C

1014.8 hpa

76 %

1.6 km/h aus 117

3.2 km/h aus SW

10.3 C

14.3 C

14.5 C

14.3 C

0 W/m

0.00 mm

01:05

14.5 C

1014.8 hpa

77 %

1.6 km/h aus 116

3.2 km/h aus SW

10.5 C

14.3 C

14.5 C

14.3 C

0 W/m

0.00 mm

01:10

14.5 C

1014.8 hpa

77 %

0.0 km/h aus 115

3.2 km/h aus SW

10.5 C

14.3 C

14.5 C

14.3 C

0 W/m

0.00 mm

01:15

14.4 C

1014.8 hpa

77 %

0.0 km/h aus 114

1.6 km/h aus SW

10.5 C

14.2 C

14.4 C

14.2 C

0 W/m

0.00 mm

01:20

14.4 C

1014.8 hpa

77 %

0.0 km/h aus 115

3.2 km/h aus SW

10.5 C

14.2 C

14.4 C

14.2 C

0 W/m

0.00 mm

01:25

14.4 C

1014.8 hpa

77 %

0.0 km/h aus 115

1.6 km/h aus SW

10.4 C

14.2 C

14.4 C

14.2 C

0 W/m

0.00 mm

01:30

14.3 C

1014.6 hpa

77 %

0.0 km/h aus 117

1.6 km/h aus SW

10.4 C

14.1 C

14.3 C

14.1 C

0 W/m

0.00 mm

01:35

14.3 C

1014.6 hpa

78 %

3.2 km/h aus 117

4.8 km/h aus SW

10.5 C

14.1 C

14.3 C

14.1 C

0 W/m

0.00 mm

01:40

14.2 C

1014.6 hpa

78 %

1.6 km/h aus 114

4.8 km/h aus SW

10.4 C

14.1 C

14.2 C

14.1 C

0 W/m

0.00 mm

01:45

14.2 C

1014.4 hpa

78 %

1.6 km/h aus 115

4.8 km/h aus SW

10.4 C

14.0 C

14.2 C

14.0 C

0 W/m

0.00 mm

01:50

14.1 C

1014.4 hpa

78 %

0.0 km/h aus 117

0.0 km/h aus ---

10.3 C

13.9 C

14.1 C

13.9 C

0 W/m

0.00 mm

01:55

14.1 C

1014.4 hpa

79 %

0.0 km/h aus 117

0.0 km/h aus ---

10.5 C

13.9 C

14.1 C

13.9 C

0 W/m

0.00 mm

02:00

14.1 C

1014.3 hpa

79 %

0.0 km/h aus 117

3.2 km/h aus ENE

10.5 C

13.9 C

14.1 C

13.9 C

0 W/m

0.00 mm

02:05

14.0 C

1014.3 hpa

80 %

1.6 km/h aus 115

3.2 km/h aus ENE

10.6 C

13.8 C

14.0 C

13.8 C

0 W/m

0.00 mm

02:10

14.0 C

1014.3 hpa

80 %

0.0 km/h aus 115

1.6 km/h aus ENE

10.6 C

13.8 C

14.0 C

13.8 C

0 W/m

0.00 mm

02:15

13.9 C

1014.2 hpa

80 %

0.0 km/h aus 117

0.0 km/h aus ---

10.5 C

13.8 C

13.9 C

13.8 C

0 W/m

0.00 mm

02:20

13.9 C

1014.2 hpa

80 %

0.0 km/h aus 117

0.0 km/h aus ---

10.5 C

13.7 C

13.9 C

13.7 C

0 W/m

0.00 mm

02:25

13.8 C

1014.2 hpa

79 %

0.0 km/h aus 116

0.0 km/h aus ---

10.3 C

13.7 C

13.8 C

13.7 C

0 W/m

0.00 mm

02:30

13.8 C

1014.0 hpa

80 %

0.0 km/h aus 115

1.6 km/h aus ENE

10.4 C

13.6 C

13.8 C

13.6 C

0 W/m

0.00 mm

02:35

13.7 C

1014.0 hpa

80 %

1.6 km/h aus 115

3.2 km/h aus ENE

10.3 C

13.6 C

13.7 C

13.6 C

0 W/m

0.00 mm

02:40

13.7 C

1014.0 hpa

81 %

1.6 km/h aus 116

4.8 km/h aus ENE

10.5 C

13.6 C

13.7 C

13.6 C

0 W/m

0.00 mm

02:45

13.7 C

1014.0 hpa

81 %

0.0 km/h aus 116

1.6 km/h aus NE

10.5 C

13.5 C

13.7 C

13.5 C

0 W/m

0.00 mm

02:50

13.6 C

1014.0 hpa

81 %

0.0 km/h aus 117

3.2 km/h aus NE

10.4 C

13.4 C

13.6 C

13.4 C

0 W/m

0.00 mm

02:55

13.6 C

1014.0 hpa

81 %

1.6 km/h aus 115

3.2 km/h aus NE

10.4 C

13.4 C

13.6 C

13.4 C

0 W/m

0.00 mm

03:00

13.6 C

1013.9 hpa

81 %

0.0 km/h aus 115

1.6 km/h aus NE

10.4 C

13.4 C

13.6 C

13.4 C

0 W/m

0.00 mm

03:05

13.4 C

1013.9 hpa

81 %

0.0 km/h aus 116

0.0 km/h aus ---

10.2 C

13.3 C

13.4 C

13.3 C

0 W/m

0.00 mm

03:10

13.4 C

1013.9 hpa

81 %

0.0 km/h aus 117

0.0 km/h aus ---

10.2 C

13.3 C

13.4 C

13.3 C

0 W/m

0.00 mm

03:15

13.4 C

1013.9 hpa

81 %

0.0 km/h aus 116

0.0 km/h aus ---

10.2 C

13.2 C

13.4 C

13.2 C

0 W/m

0.00 mm

03:20

13.3 C

1013.9 hpa

81 %

0.0 km/h aus 116

0.0 km/h aus ---

10.1 C

13.2 C

13.3 C

13.2 C

0 W/m

0.00 mm

03:25

13.3 C

1013.9 hpa

81 %

0.0 km/h aus 114

0.0 km/h aus ---

10.1 C

13.1 C

13.3 C

13.1 C

0 W/m

0.00 mm

03:30

13.3 C

1013.8 hpa

82 %

0.0 km/h aus 117

0.0 km/h aus ---

10.3 C

13.2 C

13.3 C

13.2 C

0 W/m

0.00 mm

03:35

13.2 C

1013.8 hpa

82 %

0.0 km/h aus 117

0.0 km/h aus ---

10.2 C

13.1 C

13.2 C

13.1 C

0 W/m

0.00 mm

03:40

13.2 C

1013.8 hpa

82 %

0.0 km/h aus 117

0.0 km/h aus ---

10.2 C

13.1 C

13.2 C

13.1 C

0 W/m

0.00 mm

03:45

13.2 C

1013.8 hpa

83 %

0.0 km/h aus 117

0.0 km/h aus ---

10.3 C

13.1 C

13.2 C

13.1 C

0 W/m

0.00 mm

03:50

13.1 C

1013.8 hpa

82 %

0.0 km/h aus 114

0.0 km/h aus ---

10.1 C

13.0 C

13.1 C

13.0 C

0 W/m

0.00 mm

03:55

13.1 C

1013.8 hpa

82 %

0.0 km/h aus 116

0.0 km/h aus ---

10.1 C

12.9 C

13.1 C

12.9 C

0 W/m

0.00 mm

04:00

13.1 C

1013.8 hpa

82 %

0.0 km/h aus 116

0.0 km/h aus ---

10.1 C

12.9 C

13.1 C

12.9 C

0 W/m

0.00 mm

04:05

13.0 C

1013.8 hpa

82 %

0.0 km/h aus 117

0.0 km/h aus ---

10.0 C

12.9 C

13.0 C

12.9 C

0 W/m

0.00 mm

04:10

12.9 C

1013.8 hpa

82 %

0.0 km/h aus 117

0.0 km/h aus ---

9.9 C

12.8 C

12.9 C

12.8 C

0 W/m

0.00 mm

04:15

12.9 C

1013.8 hpa

83 %

0.0 km/h aus 114

0.0 km/h aus ---

10.1 C

12.8 C

12.9 C

12.8 C

0 W/m

0.00 mm

04:20

12.8 C

1013.8 hpa

83 %

0.0 km/h aus 115

0.0 km/h aus ---

10.0 C

12.7 C

12.8 C

12.7 C

0 W/m

0.00 mm

04:25

12.8 C

1013.8 hpa

83 %

0.0 km/h aus 118

0.0 km/h aus ---

10.0 C

12.7 C

12.8 C

12.7 C

0 W/m

0.00 mm

04:30

12.8 C

1013.9 hpa

83 %

0.0 km/h aus 117

0.0 km/h aus ---

10.0 C

12.7 C

12.8 C

12.7 C

0 W/m

0.00 mm

04:35

12.7 C

1013.9 hpa

83 %

0.0 km/h aus 117

0.0 km/h aus ---

9.9 C

12.6 C

12.7 C

12.6 C

0 W/m

0.00 mm

04:40

12.7 C

1013.9 hpa

83 %

0.0 km/h aus 115

0.0 km/h aus ---

9.9 C

12.6 C

12.7 C

12.6 C

0 W/m

0.00 mm

04:45

12.7 C

1013.9 hpa

83 %

0.0 km/h aus 115

0.0 km/h aus ---

9.9 C

12.6 C

12.7 C

12.6 C

0 W/m

0.00 mm

04:50

12.7 C

1013.9 hpa

84 %

0.0 km/h aus 117

0.0 km/h aus ---

10.0 C

12.6 C

12.7 C

12.6 C

0 W/m

0.00 mm

04:55

12.6 C

1013.9 hpa

84 %

0.0 km/h aus 116

0.0 km/h aus ---

10.0 C

12.6 C

12.6 C

12.6 C

0 W/m

0.00 mm

05:00

12.6 C

1013.9 hpa

84 %

0.0 km/h aus 117

0.0 km/h aus ---

10.0 C

12.6 C

12.6 C

12.6 C

0 W/m

0.00 mm

05:05

12.6 C

1013.9 hpa

84 %

0.0 km/h aus 116

0.0 km/h aus ---

10.0 C

12.6 C

12.6 C

12.6 C

0 W/m

0.00 mm

05:10

12.6 C

1013.9 hpa

85 %

0.0 km/h aus 114

0.0 km/h aus ---

10.1 C

12.5 C

12.6 C

12.5 C

0 W/m

0.00 mm

05:15

12.6 C

1013.8 hpa

85 %

0.0 km/h aus 117

0.0 km/h aus ---

10.1 C

12.5 C

12.6 C

12.5 C

0 W/m

0.00 mm

05:20

12.5 C

1013.8 hpa

85 %

0.0 km/h aus 117

0.0 km/h aus ---

10.0 C

12.4 C

12.5 C

12.4 C

0 W/m

0.00 mm

05:25

12.5 C

1013.8 hpa

85 %

1.6 km/h aus 116

4.8 km/h aus NE

10.0 C

12.4 C

12.5 C

12.4 C

0 W/m

0.00 mm

05:30

12.4 C

1013.8 hpa

85 %

0.0 km/h aus 117

1.6 km/h aus NNE

10.0 C

12.4 C

12.4 C

12.4 C

0 W/m

0.00 mm

05:35

12.4 C

1013.8 hpa

85 %

1.6 km/h aus 114

4.8 km/h aus E

10.0 C

12.4 C

12.4 C

12.4 C

0 W/m

0.00 mm

05:40

12.4 C

1013.8 hpa

85 %

0.0 km/h aus 116

3.2 km/h aus E

9.9 C

12.3 C

12.4 C

12.3 C

5 W/m

0.00 mm

05:45

12.4 C

1013.8 hpa

85 %

1.6 km/h aus 116

3.2 km/h aus E

9.9 C

12.3 C

12.4 C

12.3 C

6 W/m

0.00 mm

05:50

12.3 C

1013.8 hpa

85 %

1.6 km/h aus 117

4.8 km/h aus E

9.9 C

12.3 C

12.3 C

12.3 C

10 W/m

0.00 mm

05:55

12.3 C

1013.8 hpa

85 %

3.2 km/h aus 117

4.8 km/h aus E

9.9 C

12.3 C

12.3 C

12.3 C

12 W/m

0.00 mm

06:00

12.3 C

1013.8 hpa

85 %

3.2 km/h aus 114

4.8 km/h aus E

9.8 C

12.2 C

12.3 C

12.2 C

15 W/m

0.00 mm

06:05

12.3 C

1013.8 hpa

86 %

1.6 km/h aus 115

4.8 km/h aus E

10.0 C

12.2 C

12.3 C

12.2 C

18 W/m

0.00 mm

06:10

12.2 C

1013.8 hpa

86 %

1.6 km/h aus 116

6.4 km/h aus E

9.9 C

12.2 C

12.2 C

12.2 C

22 W/m

0.00 mm

06:15

12.2 C

1013.8 hpa

86 %

1.6 km/h aus 117

8.0 km/h aus SE

9.9 C

12.2 C

12.2 C

12.2 C

25 W/m

0.00 mm

06:20

12.3 C

1013.8 hpa

86 %

1.6 km/h aus 116

4.8 km/h aus ESE

10.0 C

12.2 C

12.3 C

12.2 C

31 W/m

0.00 mm

06:25

12.3 C

1013.8 hpa

86 %

1.6 km/h aus 116

3.2 km/h aus ESE

10.0 C

12.2 C

12.3 C

12.2 C

36 W/m

0.00 mm

06:30

12.3 C

1013.8 hpa

87 %

1.6 km/h aus 114

4.8 km/h aus ESE

10.2 C

12.3 C

12.3 C

12.3 C

40 W/m

0.00 mm

06:35

12.3 C

1013.8 hpa

87 %

1.6 km/h aus 118

4.8 km/h aus ESE

10.2 C

12.3 C

12.3 C

12.3 C

42 W/m

0.00 mm

06:40

12.4 C

1013.8 hpa

87 %

1.6 km/h aus 117

3.2 km/h aus ESE

10.3 C

12.4 C

12.4 C

12.4 C

43 W/m

0.00 mm

06:45

12.4 C

1013.8 hpa

87 %

1.6 km/h aus 116

4.8 km/h aus NNE

10.3 C

12.4 C

12.4 C

12.4 C

45 W/m

0.00 mm

06:50

12.5 C

1013.8 hpa

87 %

1.6 km/h aus 117

4.8 km/h aus NNE

10.4 C

12.5 C

12.5 C

12.5 C

47 W/m

0.00 mm

06:55

12.6 C

1013.8 hpa

87 %

1.6 km/h aus 114

3.2 km/h aus NNE

10.4 C

12.6 C

12.6 C

12.6 C

48 W/m

0.00 mm

07:00

12.6 C

1013.8 hpa

87 %

3.2 km/h aus 115

6.4 km/h aus NNE

10.5 C

12.6 C

12.6 C

12.6 C

54 W/m

0.00 mm

07:05

12.7 C

1013.8 hpa

88 %

3.2 km/h aus 117

4.8 km/h aus NNE

10.7 C

12.7 C

12.7 C

12.7 C

61 W/m

0.00 mm

07:10

12.8 C

1013.8 hpa

88 %

3.2 km/h aus 117

4.8 km/h aus NNE

10.8 C

12.8 C

12.8 C

12.8 C

70 W/m

0.00 mm

07:15

12.8 C

1013.8 hpa

88 %

1.6 km/h aus 117

3.2 km/h aus NNE

10.9 C

12.8 C

12.8 C

12.8 C

74 W/m

0.00 mm

07:20

12.9 C

1013.8 hpa

88 %

0.0 km/h aus 114

3.2 km/h aus NNE

11.0 C

12.9 C

12.9 C

12.9 C

79 W/m

0.00 mm

07:25

13.1 C

1013.8 hpa

88 %

1.6 km/h aus 116

3.2 km/h aus NNE

11.1 C

13.1 C

13.1 C

13.1 C

83 W/m

0.00 mm

07:30

13.2 C

1013.9 hpa

88 %

1.6 km/h aus 117

4.8 km/h aus NNE

11.2 C

13.2 C

13.2 C

13.2 C

87 W/m

0.00 mm

07:35

13.3 C

1013.9 hpa

88 %

1.6 km/h aus 117

3.2 km/h aus NNE

11.3 C

13.3 C

13.3 C

13.3 C

91 W/m

0.00 mm

07:40

13.4 C

1013.9 hpa

88 %

3.2 km/h aus 118

6.4 km/h aus NNE

11.4 C

13.4 C

13.4 C

13.4 C

95 W/m

0.00 mm

07:45

13.5 C

1013.9 hpa

87 %

1.6 km/h aus 115

4.8 km/h aus NNE

11.4 C

13.5 C

13.5 C

13.5 C

108 W/m

0.00 mm

07:50

13.6 C

1013.9 hpa

87 %

3.2 km/h aus 115

6.4 km/h aus NNE

11.4 C

13.6 C

13.6 C

13.6 C

119 W/m

0.00 mm

07:55

13.7 C

1013.9 hpa

87 %

3.2 km/h aus 117

6.4 km/h aus NNE

11.5 C

13.7 C

13.7 C

13.7 C

138 W/m

0.00 mm

08:00

13.8 C

1013.9 hpa

87 %

1.6 km/h aus 117

3.2 km/h aus N

11.7 C

13.8 C

13.8 C

13.8 C

153 W/m

0.00 mm

08:05

13.9 C

1013.9 hpa

87 %

1.6 km/h aus 117

4.8 km/h aus N

11.8 C

13.9 C

13.9 C

13.9 C

169 W/m

0.00 mm

08:10

14.4 C

1013.9 hpa

86 %

3.2 km/h aus 115

6.4 km/h aus NNE

12.1 C

14.3 C

14.4 C

14.3 C

221 W/m

0.00 mm

08:15

14.9 C

1013.9 hpa

84 %

1.6 km/h aus 116

4.8 km/h aus NNE

12.3 C

14.9 C

14.9 C

14.9 C

344 W/m

0.00 mm

08:20

15.5 C

1013.9 hpa

83 %

1.6 km/h aus 116

4.8 km/h aus NNE

12.6 C

15.5 C

15.5 C

15.5 C

340 W/m

0.00 mm

08:25

15.9 C

1013.9 hpa

81 %

0.0 km/h aus 117

3.2 km/h aus NNE

12.7 C

15.9 C

15.9 C

15.9 C

348 W/m

0.00 mm

08:30

16.4 C

1013.9 hpa

79 %

0.0 km/h aus 117

3.2 km/h aus NNE

12.8 C

16.4 C

16.4 C

16.4 C

358 W/m

0.00 mm

08:35

16.9 C

1013.9 hpa

76 %

3.2 km/h aus 114

6.4 km/h aus E

12.6 C

16.8 C

16.9 C

16.8 C

372 W/m

0.00 mm

08:40

17.2 C

1013.9 hpa

75 %

3.2 km/h aus 117

6.4 km/h aus NE

12.7 C

17.2 C

17.2 C

17.2 C

383 W/m

0.00 mm

08:45

17.4 C

1013.8 hpa

73 %

4.8 km/h aus 117

8.0 km/h aus NE

12.6 C

17.4 C

17.4 C

17.4 C

404 W/m

0.00 mm

08:50

17.6 C

1013.8 hpa

74 %

4.8 km/h aus 117

9.7 km/h aus ESE

12.9 C

17.6 C

17.6 C

17.6 C

406 W/m

0.00 mm

08:55

17.7 C

1013.8 hpa

73 %

4.8 km/h aus 114

11.3 km/h aus ENE

12.8 C

17.6 C

17.7 C

17.6 C

344 W/m

0.00 mm

09:00

17.9 C

1013.8 hpa

73 %

8.0 km/h aus 115

11.3 km/h aus NE

13.0 C

17.9 C

17.9 C

17.9 C

433 W/m

0.00 mm

09:05

18.2 C

1013.8 hpa

73 %

4.8 km/h aus 117

11.3 km/h aus NNE

13.2 C

18.2 C

18.2 C

18.2 C

449 W/m

0.00 mm

09:10

18.2 C

1013.8 hpa

71 %

6.4 km/h aus 117

11.3 km/h aus E

12.9 C

18.2 C

18.2 C

18.2 C

463 W/m

0.00 mm

09:15

18.2 C

1013.8 hpa

71 %

6.4 km/h aus 117

14.5 km/h aus E

12.9 C

18.2 C

18.2 C

18.2 C

477 W/m

0.00 mm

09:20

18.3 C

1013.8 hpa

72 %

8.0 km/h aus 114

14.5 km/h aus E

13.1 C

18.3 C

18.3 C

18.3 C

492 W/m

0.00 mm

09:25

18.3 C

1013.8 hpa

69 %

8.0 km/h aus 116

16.1 km/h aus ENE

12.5 C

18.3 C

18.3 C

18.3 C

357 W/m

0.00 mm

09:30

17.8 C

1013.8 hpa

70 %

6.4 km/h aus 117

16.1 km/h aus ENE

12.3 C

17.7 C

17.8 C

17.7 C

217 W/m

0.00 mm

09:35

17.7 C

1013.8 hpa

72 %

4.8 km/h aus 117

9.7 km/h aus ENE

12.6 C

17.6 C

17.7 C

17.6 C

278 W/m

0.00 mm

09:40

17.7 C

1013.8 hpa

72 %

6.4 km/h aus 115

12.9 km/h aus ENE

12.6 C

17.7 C

17.7 C

17.7 C

200 W/m

0.00 mm

09:45

17.7 C

1013.8 hpa

70 %

6.4 km/h aus 115

11.3 km/h aus E

12.1 C

17.6 C

17.7 C

17.6 C

220 W/m

0.00 mm

09:50

17.6 C

1013.8 hpa

71 %

6.4 km/h aus 117

14.5 km/h aus ENE

12.3 C

17.5 C

17.6 C

17.5 C

228 W/m

0.00 mm

09:55

17.7 C

1013.8 hpa

71 %

6.4 km/h aus 117

16.1 km/h aus ESE

12.3 C

17.6 C

17.7 C

17.6 C

261 W/m

0.00 mm

10:00

17.8 C

1013.8 hpa

71 %

4.8 km/h aus 117

11.3 km/h aus ENE

12.5 C

17.8 C

17.8 C

17.8 C

278 W/m

0.00 mm

10:05

18.1 C

1013.8 hpa

70 %

6.4 km/h aus 115

11.3 km/h aus ENE

12.5 C

18.0 C

18.1 C

18.0 C

337 W/m

0.00 mm

10:10

18.3 C

1013.8 hpa

71 %

4.8 km/h aus 115

11.3 km/h aus E

12.9 C

18.3 C

18.3 C

18.3 C

258 W/m

0.00 mm

10:15

18.1 C

1013.8 hpa

71 %

6.4 km/h aus 116

11.3 km/h aus NE

12.8 C

18.1 C

18.1 C

18.1 C

215 W/m

0.00 mm

10:20

17.9 C

1013.8 hpa

72 %

4.8 km/h aus 117

9.7 km/h aus E

12.8 C

17.9 C

17.9 C

17.9 C

184 W/m

0.00 mm

10:25

17.8 C

1013.8 hpa

72 %

4.8 km/h aus 113

8.0 km/h aus NNE

12.7 C

17.8 C

17.8 C

17.8 C

164 W/m

0.00 mm

10:30

18.2 C

1013.7 hpa

75 %

3.2 km/h aus 114

8.0 km/h aus ENE

13.7 C

18.3 C

18.2 C

18.3 C

318 W/m

0.00 mm

10:35

18.2 C

1013.7 hpa

72 %

1.6 km/h aus 114

4.8 km/h aus NE

13.1 C

18.3 C

18.2 C

18.3 C

293 W/m

0.00 mm

10:40

18.3 C

1013.7 hpa

71 %

3.2 km/h aus 116

8.0 km/h aus NE

13.0 C

18.4 C

18.3 C

18.4 C

269 W/m

0.00 mm

10:45

18.3 C

1013.5 hpa

71 %

3.2 km/h aus 117

6.4 km/h aus NE

13.0 C

18.4 C

18.3 C

18.4 C

255 W/m

0.00 mm

10:50

18.5 C

1013.5 hpa

70 %

8.0 km/h aus 117

17.7 km/h aus ENE

12.9 C

18.6 C

18.5 C

18.6 C

234 W/m

0.00 mm

10:55

18.4 C

1013.5 hpa

70 %

8.0 km/h aus 115

11.3 km/h aus NNE

12.9 C

18.4 C

18.4 C

18.4 C

289 W/m

0.00 mm

11:00

18.6 C

1013.4 hpa

68 %

6.4 km/h aus 117

16.1 km/h aus NNE

12.6 C

18.6 C

18.6 C

18.6 C

309 W/m

0.00 mm

11:05

18.7 C

1013.4 hpa

68 %

8.0 km/h aus 117

16.1 km/h aus NE

12.7 C

18.7 C

18.7 C

18.7 C

296 W/m

0.00 mm

11:10

18.8 C

1013.4 hpa

66 %

9.7 km/h aus 117

19.3 km/h aus ENE

12.3 C

18.7 C

18.8 C

18.7 C

335 W/m

0.00 mm

11:15

19.4 C

1013.3 hpa

68 %

9.7 km/h aus 114

24.1 km/h aus ENE

13.4 C

19.6 C

19.4 C

19.6 C

581 W/m

0.00 mm

11:20

19.9 C

1013.3 hpa

62 %

11.3 km/h aus 116

19.3 km/h aus E

12.4 C

19.9 C

19.9 C

19.9 C

638 W/m

0.00 mm

11:25

20.3 C

1013.3 hpa

61 %

9.7 km/h aus 117

17.7 km/h aus NNE

12.5 C

20.1 C

20.3 C

20.1 C

620 W/m

0.00 mm

11:30

20.4 C

1013.3 hpa

59 %

12.9 km/h aus 116

20.9 km/h aus ENE

12.2 C

19.7 C

20.1 C

20.1 C

639 W/m

0.00 mm

11:35

19.8 C

1013.3 hpa

59 %

12.9 km/h aus 115

22.5 km/h aus E

11.5 C

19.1 C

19.4 C

19.5 C

317 W/m

0.00 mm

11:40

19.6 C

1013.3 hpa

62 %

8.0 km/h aus 115

16.1 km/h aus NNE

12.1 C

19.5 C

19.6 C

19.5 C

307 W/m

0.00 mm

11:45

19.4 C

1013.3 hpa

66 %

3.2 km/h aus 117

8.0 km/h aus NE

12.9 C

19.4 C

19.4 C

19.4 C

365 W/m

0.00 mm

11:50

19.9 C

1013.3 hpa

65 %

6.4 km/h aus 116

17.7 km/h aus NNE

13.2 C

20.1 C

19.9 C

20.1 C

596 W/m

0.00 mm

11:55

20.4 C

1013.3 hpa

61 %

8.0 km/h aus 118

19.3 km/h aus NNE

12.7 C

20.2 C

20.4 C

20.2 C

604 W/m

0.00 mm

12:00

20.3 C

1013.2 hpa

60 %

8.0 km/h aus 114

17.7 km/h aus NNE

12.3 C

20.0 C

20.3 C

20.0 C

416 W/m

0.00 mm

12:05

20.0 C

1013.2 hpa

61 %

9.7 km/h aus 117

20.9 km/h aus NE

12.2 C

19.9 C

20.0 C

19.9 C

423 W/m

0.00 mm

12:10

19.9 C

1013.2 hpa

61 %

8.0 km/h aus 117

16.1 km/h aus NNE

12.2 C

19.8 C

19.9 C

19.8 C

415 W/m

0.00 mm

12:15

19.9 C

1013.1 hpa

62 %

8.0 km/h aus 116

17.7 km/h aus ENE

12.4 C

19.9 C

19.9 C

19.9 C

382 W/m

0.00 mm

12:20

19.9 C

1013.1 hpa

61 %

6.4 km/h aus 115

16.1 km/h aus NNE

12.1 C

19.8 C

19.9 C

19.8 C

374 W/m

0.00 mm

12:25

20.2 C

1013.1 hpa

60 %

9.7 km/h aus 115

19.3 km/h aus NE

12.2 C

20.0 C

20.2 C

20.0 C

478 W/m

0.00 mm

12:30

20.3 C

1013.0 hpa

61 %

3.2 km/h aus 115

16.1 km/h aus N

12.6 C

20.1 C

20.3 C

20.1 C

434 W/m

0.00 mm

12:35

20.8 C

1013.0 hpa

58 %

11.3 km/h aus 116

24.1 km/h aus NNE

12.2 C

20.3 C

20.8 C

20.3 C

580 W/m

0.00 mm

12:40

20.5 C

1013.0 hpa

59 %

8.0 km/h aus 117

22.5 km/h aus NE

12.2 C

20.1 C

20.5 C

20.1 C

479 W/m

0.00 mm

12:45

20.3 C

1012.8 hpa

58 %

8.0 km/h aus 114

17.7 km/h aus NE

11.8 C

19.9 C

20.3 C

19.9 C

365 W/m

0.00 mm

12:50

20.4 C

1012.8 hpa

57 %

9.7 km/h aus 116

22.5 km/h aus E

11.6 C

20.0 C

20.4 C

20.0 C

581 W/m

0.00 mm

12:55

20.9 C

1012.8 hpa

58 %

12.9 km/h aus 116

24.1 km/h aus NE

12.4 C

20.1 C

20.6 C

20.4 C

658 W/m

0.00 mm

13:00

20.9 C

1012.7 hpa

56 %

12.9 km/h aus 117

29.0 km/h aus ESE

11.8 C

20.0 C

20.6 C

20.3 C

549 W/m

0.00 mm

13:05

20.3 C

1012.7 hpa

58 %

11.3 km/h aus 115

24.1 km/h aus NE

11.7 C

19.9 C

20.3 C

19.9 C

286 W/m

0.00 mm

13:10

20.4 C

1012.7 hpa

60 %

11.3 km/h aus 115

22.5 km/h aus ENE

12.4 C

20.1 C

20.4 C

20.1 C

293 W/m

0.00 mm

13:15

20.7 C

1012.5 hpa

60 %

9.7 km/h aus 117

22.5 km/h aus NNE

12.6 C

20.3 C

20.7 C

20.3 C

528 W/m

0.00 mm

13:20

21.3 C

1012.5 hpa

62 %

11.3 km/h aus 117

24.1 km/h aus NNE

13.8 C

21.1 C

21.3 C

21.1 C

661 W/m

0.00 mm

13:25

21.1 C

1012.5 hpa

57 %

11.3 km/h aus 115

25.7 km/h aus E

12.3 C

20.5 C

21.1 C

20.5 C

524 W/m

0.00 mm

13:30

21.2 C

1012.3 hpa

57 %

9.7 km/h aus 114

19.3 km/h aus NE

12.4 C

20.7 C

21.2 C

20.7 C

522 W/m

0.00 mm

13:35

21.3 C

1012.3 hpa

59 %

11.3 km/h aus 115

27.4 km/h aus N

13.0 C

20.9 C

21.3 C

20.9 C

631 W/m

0.00 mm

13:40

21.7 C

1012.3 hpa

60 %

9.7 km/h aus 117

22.5 km/h aus NE

13.6 C

21.4 C

21.7 C

21.4 C

642 W/m

0.00 mm

13:45

21.3 C

1012.2 hpa

60 %

11.3 km/h aus 117

25.7 km/h aus NE

13.2 C

20.9 C

21.3 C

20.9 C

639 W/m

0.00 mm

13:50

21.3 C

1012.2 hpa

58 %

12.9 km/h aus 116

24.1 km/h aus ENE

12.7 C

20.6 C

21.1 C

20.8 C

571 W/m

0.00 mm

13:55

21.1 C

1012.2 hpa

61 %

9.7 km/h aus 114

19.3 km/h aus ENE

13.2 C

20.7 C

21.1 C

20.7 C

418 W/m

0.00 mm

14:00

21.7 C

1011.9 hpa

58 %

12.9 km/h aus 117

24.1 km/h aus NE

13.0 C

21.0 C

21.4 C

21.3 C

658 W/m

0.00 mm

14:05

22.1 C

1011.9 hpa

59 %

8.0 km/h aus 117

20.9 km/h aus NNE

13.7 C

21.9 C

22.1 C

21.9 C

654 W/m

0.00 mm

14:10

22.1 C

1011.9 hpa

57 %

9.7 km/h aus 117

19.3 km/h aus E

13.2 C

21.9 C

22.1 C

21.9 C

648 W/m

0.00 mm

14:15

21.9 C

1011.8 hpa

57 %

14.5 km/h aus 114

25.7 km/h aus NNE

13.0 C

20.8 C

21.1 C

21.6 C

640 W/m

0.00 mm

14:20

21.6 C

1011.8 hpa

59 %

11.3 km/h aus 115

25.7 km/h aus NE

13.3 C

21.3 C

21.6 C

21.3 C

656 W/m

0.00 mm

14:25

21.8 C

1011.8 hpa

59 %

6.4 km/h aus 117

20.9 km/h aus ENE

13.5 C

21.6 C

21.8 C

21.6 C

634 W/m

0.00 mm

14:30

21.8 C

1011.8 hpa

56 %

9.7 km/h aus 117

22.5 km/h aus ENE

12.6 C

21.3 C

21.8 C

21.3 C

377 W/m

0.00 mm

14:35

21.4 C

1011.8 hpa

60 %

8.0 km/h aus 115

17.7 km/h aus E

13.3 C

21.0 C

21.4 C

21.0 C

351 W/m

0.00 mm

14:40

21.4 C

1011.8 hpa

59 %

11.3 km/h aus 115

22.5 km/h aus NE

13.1 C

21.1 C

21.4 C

21.1 C

542 W/m

0.00 mm

14:45

21.6 C

1011.7 hpa

59 %

8.0 km/h aus 116

17.7 km/h aus NE

13.3 C

21.3 C

21.6 C

21.3 C

357 W/m

0.00 mm

14:50

21.6 C

1011.7 hpa

59 %

12.9 km/h aus 116

20.9 km/h aus NNE

13.3 C

21.0 C

21.3 C

21.3 C

550 W/m

0.00 mm

14:55

21.8 C

1011.7 hpa

59 %

11.3 km/h aus 117

19.3 km/h aus E

13.4 C

21.5 C

21.8 C

21.5 C

599 W/m

0.00 mm

15:00

22.0 C

1011.4 hpa

56 %

9.7 km/h aus 113

24.1 km/h aus NE

12.8 C

21.7 C

22.0 C

21.7 C

604 W/m

0.00 mm

15:05

21.4 C

1011.4 hpa

58 %

9.7 km/h aus 117

20.9 km/h aus E

12.8 C

20.9 C

21.4 C

20.9 C

233 W/m

0.00 mm

15:10

20.9 C

1011.4 hpa

60 %

11.3 km/h aus 116

20.9 km/h aus ESE

12.9 C

20.6 C

20.9 C

20.6 C

228 W/m

0.00 mm

15:15

21.3 C

1011.2 hpa

60 %

14.5 km/h aus 116

24.1 km/h aus NE

13.2 C

20.2 C

20.6 C

20.9 C

578 W/m

0.00 mm

15:20

21.2 C

1011.2 hpa

59 %

11.3 km/h aus 115

22.5 km/h aus ENE

12.9 C

20.8 C

21.2 C

20.8 C

281 W/m

0.00 mm

15:25

21.7 C

1011.2 hpa

61 %

9.7 km/h aus 115

20.9 km/h aus NNE

13.8 C

21.4 C

21.7 C

21.4 C

587 W/m

0.00 mm

15:30

21.7 C

1011.2 hpa

59 %

11.3 km/h aus 117

25.7 km/h aus E

13.3 C

21.3 C

21.7 C

21.3 C

357 W/m

0.00 mm

15:35

21.3 C

1011.2 hpa

60 %

8.0 km/h aus 117

17.7 km/h aus ENE

13.2 C

20.9 C

21.3 C

20.9 C

229 W/m

0.00 mm

15:40

21.3 C

1011.2 hpa

62 %

9.7 km/h aus 117

17.7 km/h aus NE

13.8 C

21.1 C

21.3 C

21.1 C

381 W/m

0.00 mm

15:45

21.1 C

1011.1 hpa

61 %

12.9 km/h aus 113

25.7 km/h aus NE

13.2 C

20.4 C

20.8 C

20.7 C

221 W/m

0.00 mm

15:50

21.0 C

1011.1 hpa

61 %

11.3 km/h aus 117

20.9 km/h aus E

13.2 C

20.6 C

21.0 C

20.6 C

240 W/m

0.00 mm

15:55

21.3 C

1011.1 hpa

62 %

8.0 km/h aus 117

19.3 km/h aus NNE

13.8 C

21.1 C

21.3 C

21.1 C

465 W/m

0.00 mm

16:00

21.2 C

1011.1 hpa

61 %

9.7 km/h aus 117

20.9 km/h aus NNE

13.4 C

20.9 C

21.2 C

20.9 C

225 W/m

0.00 mm

16:05

21.0 C

1011.1 hpa

62 %

14.5 km/h aus 114

24.1 km/h aus NE

13.4 C

19.9 C

20.2 C

20.7 C

254 W/m

0.00 mm

16:10

21.4 C

1011.1 hpa

61 %

11.3 km/h aus 116

25.7 km/h aus E

13.6 C

21.1 C

21.4 C

21.1 C

414 W/m

0.00 mm

16:15

21.4 C

1011.1 hpa

61 %

11.3 km/h aus 116

19.3 km/h aus E

13.6 C

21.1 C

21.4 C

21.1 C

351 W/m

0.00 mm

16:20

21.3 C

1011.1 hpa

60 %

14.5 km/h aus 117

20.9 km/h aus NE

13.2 C

20.1 C

20.5 C

20.9 C

216 W/m

0.00 mm

16:25

21.0 C

1011.1 hpa

61 %

12.9 km/h aus 113

27.4 km/h aus NE

13.2 C

20.3 C

20.7 C

20.6 C

231 W/m

0.00 mm

16:30

21.4 C

1010.9 hpa

63 %

11.3 km/h aus 115

20.9 km/h aus NE

14.1 C

21.2 C

21.4 C

21.2 C

495 W/m

0.00 mm

16:35

21.9 C

1010.9 hpa

59 %

11.3 km/h aus 116

22.5 km/h aus ENE

13.6 C

21.7 C

21.9 C

21.7 C

546 W/m

0.00 mm

16:40

22.3 C

1010.9 hpa

59 %

8.0 km/h aus 117

19.3 km/h aus E

13.9 C

22.2 C

22.3 C

22.2 C

544 W/m

0.00 mm

16:45

22.1 C

1010.8 hpa

59 %

14.5 km/h aus 116

32.2 km/h aus ESE

13.7 C

21.1 C

21.3 C

21.9 C

478 W/m

0.00 mm

16:50

21.8 C

1010.8 hpa

60 %

14.5 km/h aus 114

25.7 km/h aus NNE

13.7 C

20.8 C

21.1 C

21.6 C

474 W/m

0.00 mm

16:55

21.8 C

1010.8 hpa

60 %

11.3 km/h aus 117

25.7 km/h aus NE

13.7 C

21.6 C

21.8 C

21.6 C

446 W/m

0.00 mm

17:00

21.9 C

1010.7 hpa

60 %

12.9 km/h aus 117

20.9 km/h aus NE

13.8 C

21.4 C

21.6 C

21.7 C

481 W/m

0.00 mm

17:05

21.8 C

1010.7 hpa

60 %

14.5 km/h aus 117

24.1 km/h aus NE

13.7 C

20.8 C

21.1 C

21.6 C

455 W/m

0.00 mm

17:10

21.9 C

1010.7 hpa

60 %

12.9 km/h aus 113

29.0 km/h aus NE

13.8 C

21.5 C

21.7 C

21.8 C

478 W/m

0.00 mm

17:15

22.1 C

1010.7 hpa

60 %

11.3 km/h aus 115

22.5 km/h aus NE

13.9 C

21.9 C

22.1 C

21.9 C

461 W/m

0.00 mm

17:20

21.9 C

1010.7 hpa

61 %

16.1 km/h aus 117

29.0 km/h aus NE

14.0 C

20.6 C

20.7 C

21.7 C

421 W/m

0.00 mm

17:25

21.9 C

1010.7 hpa

61 %

11.3 km/h aus 117

24.1 km/h aus NE

14.1 C

21.8 C

21.9 C

21.8 C

390 W/m

0.00 mm

17:30

21.8 C

1010.5 hpa

61 %

12.9 km/h aus 117

25.7 km/h aus ENE

14.0 C

21.4 C

21.6 C

21.7 C

332 W/m

0.00 mm

17:35

21.7 C

1010.5 hpa

61 %

11.3 km/h aus 113

27.4 km/h aus NE

13.9 C

21.5 C

21.7 C

21.5 C

314 W/m

0.00 mm

17:40

21.6 C

1010.5 hpa

61 %

12.9 km/h aus 116

22.5 km/h aus ENE

13.8 C

21.1 C

21.3 C

21.4 C

299 W/m

0.00 mm

17:45

21.5 C

1010.4 hpa

63 %

9.7 km/h aus 117

24.1 km/h aus ENE

14.2 C

21.3 C

21.5 C

21.3 C

284 W/m

0.00 mm

17:50

21.4 C

1010.4 hpa

62 %

14.5 km/h aus 116

24.1 km/h aus ENE

13.9 C

20.4 C

20.7 C

21.2 C

333 W/m

0.00 mm

17:55

21.3 C

1010.4 hpa

63 %

11.3 km/h aus 115

20.9 km/h aus NE

14.0 C

21.1 C

21.3 C

21.1 C

287 W/m

0.00 mm

18:00

21.3 C

1010.3 hpa

63 %

9.7 km/h aus 114

19.3 km/h aus NE

14.0 C

21.1 C

21.3 C

21.1 C

257 W/m

0.00 mm

18:05

21.3 C

1010.3 hpa

64 %

6.4 km/h aus 117

17.7 km/h aus NNE

14.2 C

21.1 C

21.3 C

21.1 C

244 W/m

0.00 mm

18:10

21.2 C

1010.3 hpa

63 %

12.9 km/h aus 117

27.4 km/h aus ENE

13.8 C

20.6 C

20.9 C

20.9 C

264 W/m

0.00 mm

18:15

21.3 C

1010.2 hpa

64 %

8.0 km/h aus 117

16.1 km/h aus NNE

14.2 C

21.1 C

21.3 C

21.1 C

275 W/m

0.00 mm

18:20

21.3 C

1010.2 hpa

63 %

11.3 km/h aus 114

24.1 km/h aus ENE

13.9 C

21.1 C

21.3 C

21.1 C

277 W/m

0.00 mm

18:25

21.2 C

1010.2 hpa

63 %

11.3 km/h aus 116

19.3 km/h aus ENE

13.9 C

20.9 C

21.2 C

20.9 C

239 W/m

0.00 mm

18:30

21.1 C

1010.2 hpa

64 %

12.9 km/h aus 116

22.5 km/h aus E

14.0 C

20.6 C

20.8 C

20.9 C

223 W/m

0.00 mm

18:35

21.1 C

1010.2 hpa

65 %

8.0 km/h aus 117

16.1 km/h aus NE

14.2 C

20.9 C

21.1 C

20.9 C

205 W/m

0.00 mm

18:40

21.0 C

1010.2 hpa

66 %

8.0 km/h aus 115

16.1 km/h aus NE

14.4 C

20.9 C

21.0 C

20.9 C

176 W/m

0.00 mm

18:45

20.9 C

1010.2 hpa

66 %

8.0 km/h aus 116

17.7 km/h aus ENE

14.4 C

20.8 C

20.9 C

20.8 C

167 W/m

0.00 mm

18:50

20.8 C

1010.2 hpa

66 %

11.3 km/h aus 117

19.3 km/h aus NE

14.2 C

20.8 C

20.8 C

20.8 C

155 W/m

0.00 mm

18:55

20.8 C

1010.2 hpa

66 %

8.0 km/h aus 116

19.3 km/h aus ENE

14.2 C

20.7 C

20.8 C

20.7 C

148 W/m

0.00 mm

19:00

20.7 C

1010.1 hpa

66 %

8.0 km/h aus 116

19.3 km/h aus NE

14.1 C

20.7 C

20.7 C

20.7 C

103 W/m

0.00 mm

19:05

20.7 C

1010.1 hpa

66 %

8.0 km/h aus 114

16.1 km/h aus ENE

14.1 C

20.7 C

20.7 C

20.7 C

96 W/m

0.00 mm

19:10

20.6 C

1010.1 hpa

66 %

11.3 km/h aus 116

22.5 km/h aus NNE

14.0 C

20.6 C

20.6 C

20.6 C

87 W/m

0.00 mm

19:15

20.4 C

1010.1 hpa

67 %

6.4 km/h aus 117

14.5 km/h aus ENE

14.1 C

20.6 C

20.4 C

20.6 C

81 W/m

0.00 mm

19:20

20.4 C

1010.1 hpa

67 %

9.7 km/h aus 118

20.9 km/h aus E

14.1 C

20.6 C

20.4 C

20.6 C

70 W/m

0.00 mm

19:25

20.4 C

1010.1 hpa

67 %

8.0 km/h aus 115

19.3 km/h aus NNE

14.1 C

20.5 C

20.4 C

20.5 C

63 W/m

0.00 mm

19:30

20.3 C

1010.0 hpa

67 %

8.0 km/h aus 114

17.7 km/h aus NE

14.0 C

20.4 C

20.3 C

20.4 C

59 W/m

0.00 mm

19:35

20.3 C

1010.0 hpa

66 %

9.7 km/h aus 117

20.9 km/h aus ENE

13.7 C

20.3 C

20.3 C

20.3 C

53 W/m

0.00 mm

19:40

20.3 C

1010.0 hpa

67 %

8.0 km/h aus 117

19.3 km/h aus ENE

13.9 C

20.4 C

20.3 C

20.4 C

47 W/m

0.00 mm

19:45

20.2 C

1009.9 hpa

67 %

6.4 km/h aus 117

14.5 km/h aus NE

13.9 C

20.4 C

20.2 C

20.4 C

42 W/m

0.00 mm

19:50

20.2 C

1009.9 hpa

67 %

4.8 km/h aus 114

9.7 km/h aus NNE

13.8 C

20.3 C

20.2 C

20.3 C

39 W/m

0.00 mm

19:55

20.1 C

1009.9 hpa

68 %

4.8 km/h aus 116

14.5 km/h aus NE

14.0 C

20.3 C

20.1 C

20.3 C

38 W/m

0.00 mm

20:00

20.0 C

1009.8 hpa

68 %

6.4 km/h aus 117

16.1 km/h aus ENE

13.9 C

20.2 C

20.0 C

20.2 C

36 W/m

0.00 mm

20:05

19.9 C

1009.8 hpa

68 %

6.4 km/h aus 117

14.5 km/h aus NE

13.8 C

20.1 C

19.9 C

20.1 C

34 W/m

0.00 mm

20:10

19.8 C

1009.8 hpa

68 %

6.4 km/h aus 114

9.7 km/h aus NE

13.8 C

20.1 C

19.8 C

20.1 C

33 W/m

0.00 mm

20:15

19.8 C

1009.7 hpa

69 %

4.8 km/h aus 115

9.7 km/h aus ENE

13.9 C

20.0 C

19.8 C

20.0 C

31 W/m

0.00 mm

20:20

19.7 C

1009.7 hpa

69 %

4.8 km/h aus 117

9.7 km/h aus NNE

13.9 C

19.9 C

19.7 C

19.9 C

28 W/m

0.00 mm

20:25

19.6 C

1009.7 hpa

69 %

6.4 km/h aus 117

9.7 km/h aus NE

13.8 C

19.8 C

19.6 C

19.8 C

25 W/m

0.00 mm

20:30

19.5 C

1009.7 hpa

70 %

4.8 km/h aus 116

9.7 km/h aus NE

13.9 C

19.7 C

19.5 C

19.7 C

21 W/m

0.00 mm

20:35

19.4 C

1009.7 hpa

70 %

4.8 km/h aus 114

8.0 km/h aus NE

13.8 C

19.7 C

19.4 C

19.7 C

19 W/m

0.00 mm

20:40

19.3 C

1009.7 hpa

70 %

4.8 km/h aus 116

8.0 km/h aus NNE

13.7 C

19.6 C

19.3 C

19.6 C

15 W/m

0.00 mm

20:45

19.2 C

1009.7 hpa

71 %

4.8 km/h aus 117

8.0 km/h aus NE

13.8 C

19.4 C

19.2 C

19.4 C

13 W/m

0.00 mm

20:50

19.1 C

1009.7 hpa

71 %

4.8 km/h aus 116

9.7 km/h aus NNE

13.7 C

19.3 C

19.1 C

19.3 C

10 W/m

0.00 mm

20:55

19.1 C

1009.7 hpa

71 %

4.8 km/h aus 116

8.0 km/h aus NE

13.7 C

19.2 C

19.1 C

19.2 C

8 W/m

0.00 mm

21:00

18.9 C

1009.8 hpa

72 %

6.4 km/h aus 114

9.7 km/h aus NE

13.8 C

19.1 C

18.9 C

19.1 C

4 W/m

0.00 mm

21:05

18.8 C

1009.8 hpa

72 %

4.8 km/h aus 116

8.0 km/h aus NE

13.6 C

18.9 C

18.8 C

18.9 C

0 W/m

0.00 mm

21:10

18.7 C

1009.8 hpa

72 %

4.8 km/h aus 117

8.0 km/h aus NE

13.5 C

18.8 C

18.7 C

18.8 C

0 W/m

0.00 mm

21:15

18.6 C

1009.9 hpa

73 %

4.8 km/h aus 117

8.0 km/h aus NNE

13.7 C

18.8 C

18.6 C

18.8 C

0 W/m

0.00 mm

21:20

18.5 C

1009.9 hpa

73 %

4.8 km/h aus 115

9.7 km/h aus NNE

13.6 C

18.6 C

18.5 C

18.6 C

0 W/m

0.00 mm

21:25

18.3 C

1009.9 hpa

73 %

6.4 km/h aus 115

9.7 km/h aus NE

13.4 C

18.4 C

18.3 C

18.4 C

0 W/m

0.00 mm

21:30

18.3 C

1010.0 hpa

74 %

6.4 km/h aus 116

9.7 km/h aus NE

13.6 C

18.4 C

18.3 C

18.4 C

0 W/m

0.00 mm

21:35

18.2 C

1010.0 hpa

74 %

4.8 km/h aus 117

8.0 km/h aus NE

13.5 C

18.3 C

18.2 C

18.3 C

0 W/m

0.00 mm

21:40

18.1 C

1010.0 hpa

75 %

4.8 km/h aus 117

8.0 km/h aus NE

13.6 C

18.2 C

18.1 C

18.2 C

0 W/m

0.00 mm

21:45

18.0 C

1010.0 hpa

75 %

3.2 km/h aus 115

8.0 km/h aus NE

13.5 C

18.1 C

18.0 C

18.1 C

0 W/m

0.00 mm

21:50

17.9 C

1010.0 hpa

75 %

3.2 km/h aus 114

6.4 km/h aus NE

13.4 C

18.1 C

17.9 C

18.1 C

0 W/m

0.00 mm

21:55

17.8 C

1010.0 hpa

75 %

3.2 km/h aus 116

4.8 km/h aus NE

13.3 C

17.9 C

17.8 C

17.9 C

0 W/m

0.00 mm

22:00

17.7 C

1010.0 hpa

75 %

3.2 km/h aus 117

4.8 km/h aus NE

13.2 C

17.8 C

17.7 C

17.8 C

0 W/m

0.00 mm

22:05

17.6 C

1010.0 hpa

75 %

3.2 km/h aus 117

8.0 km/h aus NE

13.1 C

17.6 C

17.6 C

17.6 C

0 W/m

0.00 mm

22:10

17.5 C

1010.0 hpa

75 %

3.2 km/h aus 115

4.8 km/h aus NE

13.0 C

17.5 C

17.5 C

17.5 C

0 W/m

0.00 mm

22:15

17.4 C

1010.0 hpa

74 %

1.6 km/h aus 115

4.8 km/h aus NE

12.7 C

17.3 C

17.4 C

17.3 C

0 W/m

0.00 mm

22:20

17.2 C

1010.0 hpa

75 %

1.6 km/h aus 117

6.4 km/h aus NE

12.7 C

17.2 C

17.2 C

17.2 C

0 W/m

0.00 mm

22:25

17.2 C

1010.0 hpa

76 %

3.2 km/h aus 117

4.8 km/h aus NE

12.9 C

17.2 C

17.2 C

17.2 C

0 W/m

0.00 mm

22:30

17.1 C

1010.0 hpa

77 %

3.2 km/h aus 117

6.4 km/h aus NE

13.0 C

17.1 C

17.1 C

17.1 C

0 W/m

0.00 mm

22:35

16.9 C

1010.0 hpa

77 %

3.2 km/h aus 114

8.0 km/h aus NNE

12.9 C

16.9 C

16.9 C

16.9 C

0 W/m

0.00 mm

22:40

16.8 C

1010.0 hpa

78 %

6.4 km/h aus 116

9.7 km/h aus NNE

13.0 C

16.9 C

16.8 C

16.9 C

0 W/m

0.00 mm

22:45

16.7 C

1010.0 hpa

78 %

4.8 km/h aus 117

9.7 km/h aus NE

12.9 C

16.7 C

16.7 C

16.7 C

0 W/m

0.00 mm

22:50

16.7 C

1010.0 hpa

79 %

6.4 km/h aus 117

11.3 km/h aus NNE

13.0 C

16.7 C

16.7 C

16.7 C

0 W/m

0.00 mm

22:55

16.6 C

1010.0 hpa

79 %

4.8 km/h aus 117

9.7 km/h aus NNE

12.9 C

16.6 C

16.6 C

16.6 C

0 W/m

0.00 mm

23:00

16.5 C

1009.9 hpa

80 %

6.4 km/h aus 114

14.5 km/h aus NE

13.0 C

16.6 C

16.5 C

16.6 C

0 W/m

0.00 mm

23:05

16.4 C

1009.9 hpa

80 %

6.4 km/h aus 116

11.3 km/h aus NE

13.0 C

16.5 C

16.4 C

16.5 C

0 W/m

0.00 mm

23:10

16.4 C

1009.9 hpa

80 %

4.8 km/h aus 116

8.0 km/h aus NNE

13.0 C

16.5 C

16.4 C

16.5 C

0 W/m

0.00 mm

23:15

16.4 C

1009.7 hpa

80 %

4.8 km/h aus 117

9.7 km/h aus NE

12.9 C

16.4 C

16.4 C

16.4 C

0 W/m

0.00 mm

23:20

16.3 C

1009.7 hpa

80 %

4.8 km/h aus 116

9.7 km/h aus ENE

12.9 C

16.4 C

16.3 C

16.4 C

0 W/m

0.00 mm

23:25

16.3 C

1009.7 hpa

80 %

6.4 km/h aus 113

9.7 km/h aus NE

12.8 C

16.3 C

16.3 C

16.3 C

0 W/m

0.00 mm

23:30

16.3 C

1009.6 hpa

80 %

6.4 km/h aus 116

9.7 km/h aus NE

12.8 C

16.3 C

16.3 C

16.3 C

0 W/m

0.00 mm

23:35

16.2 C

1009.6 hpa

80 %

4.8 km/h aus 117

9.7 km/h aus NNE

12.8 C

16.2 C

16.2 C

16.2 C

0 W/m

0.00 mm

23:40

16.2 C

1009.6 hpa

80 %

4.8 km/h aus 117

8.0 km/h aus NE

12.8 C

16.2 C

16.2 C

16.2 C

0 W/m

0.00 mm

23:45

16.2 C

1009.6 hpa

80 %

4.8 km/h aus 117

6.4 km/h aus NNE

12.8 C

16.2 C

16.2 C

16.2 C

0 W/m

0.00 mm

23:50

16.2 C

1009.6 hpa

80 %

3.2 km/h aus 114

8.0 km/h aus NNE

12.8 C

16.2 C

16.2 C

16.2 C

0 W/m

0.00 mm

23:55

16.2 C

1009.6 hpa

80 %

4.8 km/h aus 116

8.0 km/h aus NNE

12.7 C

16.2 C

16.2 C

16.2 C

0 W/m

0.00 mm